Weather Roundup
Issued by NWS Springfield, MO

Home | Current Version | Previous Version | Text Only | Print | Product List | Glossary On
Versions: 1 2 3 4 5 6 7 8 9 10 11 12 13 14 15 16 17 18 19 20 21 22 23 24 25 26 27 28 29 30 31 32 33 34 35 36 37 38 39 40 41 42 43 44 45 46 47 48 49 50
000
NZUS99 KSGF 020207
HRRSGF

HOURLY WEATHER
NATIONAL WEATHER SERVICE SPRINGFIELD MO
900 PM CDT SAT AUG 01 2015

......SGF CWA......

CITY           SKY/WX    TMP DP  RH WIND       PRES   REMARKS
SPRINGFIELD    CLEAR     80  65  59 SE7       29.99S
JOPLIN         PTCLDY    82  64  54 S7        29.98R
WEST PLAINS    CLEAR     76  69  79 CALM      30.02S
ROLLA          PTCLDY    74  70  87 CALM      29.98F
OSAGE BEACH    PTCLDY    73  66  78 SW3       30.00F
BRANSON        PTCLDY    77  68  73 CALM      30.01S

......SURROUNDING SGF CWA......

CITY           SKY/WX    TMP DP  RH WIND       PRES   REMARKS
CHANUTE        CLEAR     79  70  74 S7        29.96R
PARSONS        CLEAR     76  71  85 CALM      29.97R
COFFEYVILLE    CLEAR     80  68  66 S7        29.95S
EMPORIA        PTCLDY    81  70  69 S7        29.95R
GROVE OK       CLEAR     81  70  69 CALM      29.98S
ROGERS AR      CLEAR     76  73  91 CALM      30.02S
SILOAM SPRINGS CLEAR     79  63  57 CALM      29.99S
HARRISON AR    CLEAR     79  67  66 S3        30.01S
NEAR YELLVILLE CLEAR     81  66  61 CALM      29.97R

......KANSAS AND MISSOURI......

CITY           SKY/WX    TMP DP  RH WIND       PRES   REMARKS
KANSAS CTY INT PTCLDY    75  62  64 SE16      29.96S
DOWNTOWN KC    CLEAR     78  61  55 SE5       29.96S
COLUMBIA       CLOUDY    71  69  93 SW7       29.97S
SEDALIA        MOCLDY    74  66  76 CALM      29.96F
ST JOSEPH        N/A     77  63  61 SE14      29.94R
ST LOUIS       CLOUDY    86  69  56 S3        29.97R HX  90
SPIRIT OF STL  CLOUDY    80  74  81 CALM      29.95R
KIRKSVILLE     MOCLDY    73  63  70 W5        29.97S
WICHITA        PTCLDY    82  71  69 S8        29.95S
TOPEKA         CLEAR     83  72  69 CALM      29.93R
OLATHE         CLEAR     74  63  68 SE8       29.97R

......TENNESSEE......

CITY           SKY/WX    TMP DP  RH WIND       PRES   REMARKS
MEMPHIS        PTCLDY    85  65  51 N5        29.96R
NASHVILLE      PTCLDY    82  65  56 N9        29.98R

......ARKANSAS.......

CITY           SKY/WX    TMP DP  RH WIND       PRES   REMARKS
FAYETTEVILLE   CLEAR     78  72  81 CALM      30.00S
FT SMITH       PTCLDY    85  68  56 NE3       29.94S
LITTLE ROCK    PTCLDY    85  66  53 CALM      29.95S

......OKLAHOMA.......

CITY           SKY/WX    TMP DP  RH WIND       PRES   REMARKS
TULSA          PTCLDY    85  62  46 S6        29.94S
PONCA CITY     CLEAR     85  67  54 VRB6      29.95R
MCALESTER      PTCLDY    77  69  76 CALM      29.97R
OKLAHOMA CITY  PTCLDY    77  70  79 S3        29.98R

......IOWA............

CITY           SKY/WX    TMP DP  RH WIND       PRES   REMARKS
DES MOINES     PTCLDY    80  72  76 S7        29.89F
QUAD CITIES    MOCLDY    77  68  73 S3        29.91S

......ILLINOIS........

CITY           SKY/WX    TMP DP  RH WIND       PRES   REMARKS
QUINCY         PTCLDY    79  71  76 SE6       29.94F
CHICAGO        MOCLDY    79  62  56 W10       29.90R



USA.gov is the U.S. government's official web portal to all federal, state and local government web resources and services.